Weather History for KRSL - January, 2013

Change the Weather History Date:

Sunday, January 6, 2013

  Actual Average Record
Temperature  
Mean Temperature 24 °F -  
Max Temperature 37 °F 34 °F 60 °F (2006)
Min Temperature 10 °F 14 °F -15 °F (1971)
Degree Days  
Heating Degree Days 42    
Moisture  
Dew Point 18 °F    
Average Humidity 76    
Maximum Humidity 88    
Minimum Humidity 61    
Precipitation  
Precipitation 0.00 in - - ()
Sea Level Pressure  
Sea Level Pressure 30.33 in    
Wind  
Wind Speed 9 mph (SW)    
Max Wind Speed 23 mph    
Max Gust Speed -    
Visibility 10 miles    
Events      
Averages and records for this station are not official NWS values.
T = Trace of Precipitation, MM = Missing Value Source: NWS Daily Summary

Daily Weather History Graph

Daily Weather History Graph

Search for Another Location

Airport or City:

Trip Planner

Search our weather history database for the weather conditions in past years. The results will help you decide how hot, cold, wet, or windy it might be!

Date:

Astronomy

Jan. 06, 2013 Rise Set
Actual Time 7:54 AM CST 5:28 PM CST
Civil Twilight 7:24 AM CST 5:58 PM CST
Nautical Twilight 6:51 AM CST 6:31 PM CST
Astronomical Twilight 6:19 AM CST 7:03 PM CST
Moon 2:11 AM CST (1/6) 12:56 PM CST (1/6)
Length of Visible Light 10h 33m
Length of Day
9h 34m
Waning Crescent, 33% of the Moon is Illuminated
Jan 6
Waning Crescent
Jan 11
New
Jan 18
First Quarter
Jan 26
Full
Feb 3
Last Quarter

Hourly Weather History & Observations

Time (CST) Temp. Windchill Dew Point Humidity Pressure Visibility Wind Dir Wind Speed Gust Speed Precip Events Conditions
12:53 AM 19.0 °F 8.2 °F 15.1 °F 85% 30.36 in 10.0 mi West 9.2 mph - N/A   Clear
1:53 AM 19.0 °F 10.0 °F 15.1 °F 85% 30.38 in 10.0 mi West 6.9 mph - N/A   Clear
2:53 AM 17.1 °F 7.6 °F 14.0 °F 88% 30.38 in 10.0 mi WNW 6.9 mph - N/A   Clear
3:53 AM 23.0 °F 14.7 °F 17.1 °F 78% 30.37 in 10.0 mi NW 6.9 mph - N/A   Clear
4:53 AM 19.0 °F 11.1 °F 15.1 °F 85% 30.37 in 10.0 mi West 5.8 mph - N/A   Clear
5:53 AM 12.9 °F 2.6 °F 10.0 °F 88% 30.38 in 10.0 mi SW 6.9 mph - N/A   Clear
6:53 AM 10.0 °F -2.9 °F 7.0 °F 87% 30.41 in 10.0 mi SW 9.2 mph - N/A   Clear
7:53 AM 10.9 °F 0.2 °F 8.1 °F 88% 30.43 in 10.0 mi WSW 6.9 mph - N/A   Clear
8:53 AM 12.9 °F 2.6 °F 9.0 °F 84% 30.43 in 10.0 mi SW 6.9 mph - N/A   Clear
9:53 AM 18.0 °F 8.7 °F 12.9 °F 81% 30.43 in 10.0 mi SW 6.9 mph - N/A   Clear
10:53 AM 24.1 °F 14.4 °F 16.0 °F 71% 30.44 in 10.0 mi WSW 9.2 mph - N/A   Clear
11:53 AM 28.9 °F 21.9 °F 19.9 °F 69% 30.40 in 10.0 mi SW 6.9 mph - N/A   Clear
12:53 PM 32.0 °F - 21.9 °F 66% 30.37 in 10.0 mi North - - N/A   Clear
1:53 PM 35.1 °F 27.9 °F 23.0 °F 61% 30.33 in 10.0 mi SSW 9.2 mph - N/A   Clear
3:53 PM 37.0 °F 29.8 °F 26.1 °F 65% 30.28 in 10.0 mi South 10.4 mph - N/A   Clear
4:53 PM 36.0 °F 28.0 °F 25.0 °F 64% 30.27 in 10.0 mi South 11.5 mph - N/A   Clear
5:53 PM 32.0 °F 22.5 °F 24.1 °F 73% 30.27 in 10.0 mi South 12.7 mph - N/A   Clear
6:53 PM 30.9 °F 21.7 °F 23.0 °F 72% 30.27 in 10.0 mi South 11.5 mph - N/A   Clear
7:53 PM 30.0 °F 19.1 °F 23.0 °F 75% 30.26 in 10.0 mi South 15.0 mph - N/A   Clear
9:53 PM 34.0 °F 23.4 °F 23.0 °F 64% 30.20 in 10.0 mi South 17.3 mph - N/A   Clear
10:53 PM 32.0 °F 20.1 °F 23.0 °F 69% 30.17 in 10.0 mi South 19.6 mph - N/A   Clear
11:53 PM 32.0 °F 19.2 °F 23.0 °F 69% 30.14 in 10.0 mi South 23.0 mph - N/A   Clear